GW4386 Weather Reports


Display with metric or nautical units.
time (UTC)temp
F
wind
direction
speed
MPH
gust
MPH
rain 1hr
in
rain 24hr
in
rain mn
in
humidity
%
barometer
mb
20260902233056 52 132 0.0 1.0 0.00 0.00 0.00 88 1020.0
20260902232556 52 225 0.0 1.0 0.00 0.00 0.00 88 1020.0
20260902232057 52 209 0.0 1.0 0.00 0.00 0.00 88 1020.0
20260902231609 52 202 0.0 0.0 0.00 0.00 0.00 88 1020.0
20260902231056 52 196 0.0 0.0 0.00 0.00 0.00 88 1020.0
20260902230559 52 196 0.0 0.0 0.00 0.00 0.00 88 1020.0
20260902230056 52 196 0.0 0.0 0.00 0.00 0.00 88 1020.0
20260902225558 52 196 0.0 0.0 0.00 0.00 0.00 88 1020.0
20260902225100 53 196 0.0 0.0 0.00 0.00 0.00 88 1020.0
20260902224606 53 218 0.0 0.0 0.00 0.00 0.00 88 1020.0
20260902224102 53 218 0.0 0.0 0.00 0.00 0.00 88 1020.0
20260902223558 53 212 0.0 0.0 0.00 0.00 0.00 88 1020.0
20260902223059 53 134 0.0 0.0 0.00 0.00 0.00 88 1020.1
20260902222601 53 134 0.0 0.0 0.00 0.00 0.00 88 1020.2
20260902222058 54 134 0.0 0.0 0.00 0.00 0.00 88 1020.2
20260902221619 54 134 0.0 0.0 0.00 0.00 0.00 88 1020.1
20260902221102 54 134 0.0 1.0 0.00 0.00 0.00 88 1020.1
20260902220558 54 202 0.0 1.0 0.00 0.00 0.00 88 1020.2
20260902215559 54 47 0.0 0.0 0.00 0.00 0.00 88 1020.1
20260902215058 55 47 0.0 0.0 0.00 0.00 0.00 88 1020.1
20260902214601 55 47 0.0 0.0 0.00 0.00 0.00 88 1020.3
20260902214105 55 176 0.0 0.0 0.00 0.00 0.00 88 1020.1
20260902213559 55 176 0.0 0.0 0.00 0.00 0.00 88 1020.2
20260902213058 55 198 0.0 0.0 0.00 0.00 0.00 89 1020.2
20260902212558 55 228 0.0 0.0 0.00 0.00 0.00 88 1020.2
20260902212100 55 218 0.0 0.0 0.00 0.00 0.00 88 1020.2
20260902211600 55 211 0.0 0.0 0.00 0.00 0.00 88 1020.2
20260902211058 55 234 0.0 0.0 0.00 0.00 0.00 89 1020.2
20260902210602 56 234 0.0 0.0 0.00 0.00 0.00 89 1020.2
20260902210058 55 234 0.0 0.0 0.00 0.00 0.00 89 1020.2
20260902205603 55 234 0.0 0.0 0.00 0.00 0.00 89 1020.1
20260902205058 55 234 0.0 0.0 0.00 0.00 0.00 89 1020.1
20260902204559 56 234 0.0 0.0 0.00 0.00 0.00 89 1020.1
20260902204058 56 255 0.0 0.0 0.00 0.00 0.00 88 1020.2
20260902203559 56 78 0.0 0.0 0.00 0.00 0.00 88 1020.2
20260902203059 56 78 0.0 0.0 0.00 0.00 0.00 88 1020.1
20260902202559 56 237 0.0 0.0 0.00 0.00 0.00 88 1020.2
20260902202501 56 237 0.0 0.0 0.00 0.00 0.00 88 1020.1
20260902202101 57 237 0.0 1.0 0.00 0.00 0.00 88 1020.2
20260902201601 57 195 0.0 1.0 0.00 0.00 0.00 88 1020.2
20260902201058 57 213 0.0 0.0 0.00 0.00 0.00 88 1020.2
20260902200558 57 213 0.0 0.0 0.00 0.00 0.00 88 1020.2
20260902200058 57 213 0.0 0.0 0.00 0.00 0.00 88 1020.3
20260902200002 57 213 0.0 0.0 0.00 0.00 0.00 88 1020.3
20260902195559 58 213 0.0 0.0 0.00 0.01 0.00 88 1020.3
20260902195100 58 213 0.0 0.0 0.00 0.01 0.00 88 1020.3
20260902194558 58 213 0.0 0.0 0.00 0.01 0.00 88 1020.3
20260902194059 58 213 0.0 1.0 0.00 0.01 0.00 88 1020.3
20260902193602 58 216 0.0 1.0 0.00 0.01 0.00 88 1020.3
20260902193107 58 142 0.0 0.0 0.00 0.01 0.00 88 1020.3
20260902192559 58 142 0.0 0.0 0.00 0.01 0.00 88 1020.4
20260902192059 59 198 0.0 0.0 0.00 0.01 0.00 88 1020.4
20260902191631 59 198 0.0 0.0 0.00 0.01 0.00 88 1020.4
20260902191100 59 204 0.0 0.0 0.00 0.01 0.00 88 1020.4
20260902190559 59 221 0.0 0.0 0.00 0.01 0.00 87 1020.4
20260902190100 59 207 0.0 0.0 0.00 0.01 0.00 87 1020.5
20260902185559 59 218 0.0 0.0 0.00 0.01 0.00 87 1020.5
20260902185102 59 218 0.0 1.0 0.00 0.01 0.00 87 1020.4
20260902184559 59 227 0.0 1.0 0.00 0.01 0.00 87 1020.4
20260902184058 59 207 0.0 0.0 0.00 0.01 0.00 87 1020.4
20260902183602 59 192 0.0 0.0 0.00 0.01 0.00 86 1020.4
20260902183122 59 171 0.0 0.0 0.00 0.01 0.00 86 1020.3
20260902182600 60 171 0.0 0.0 0.00 0.01 0.00 86 1020.4
20260902182058 60 306 0.0 0.0 0.00 0.01 0.00 86 1020.3
20260902181611 60 301 0.0 0.0 0.00 0.01 0.00 85 1020.3
20260902181100 60 311 0.0 0.0 0.00 0.01 0.00 85 1020.2
20260902180558 60 311 0.0 0.0 0.00 0.01 0.00 85 1020.2
20260902175558 61 158 0.0 1.0 0.00 0.01 0.00 84 1020.1
20260902175059 61 211 0.0 1.0 0.00 0.01 0.00 84 1020.2
20260902174559 61 214 0.0 1.0 0.00 0.01 0.00 83 1020.2
20260902174059 62 214 0.0 1.0 0.00 0.01 0.00 83 1020.2
20260902173558 62 205 0.0 0.0 0.00 0.01 0.00 82 1020.2
20260902173112 62 214 0.0 0.0 0.00 0.01 0.00 81 1020.2
20260902172559 63 220 0.0 1.0 0.00 0.01 0.00 81 1020.1
20260902172058 63 204 0.0 1.0 0.00 0.01 0.00 80 1020.2
20260902171604 63 235 0.0 0.0 0.00 0.01 0.00 80 1020.2
20260902171058 64 226 0.0 2.0 0.00 0.01 0.00 78 1020.2
20260902170602 65 225 0.0 2.0 0.00 0.01 0.00 76 1020.2
20260902170058 65 232 0.0 3.0 0.00 0.01 0.00 75 1020.2
20260902165559 66 215 1.0 3.0 0.00 0.02 0.00 72 1020.2
20260902165059 66 242 0.0 3.0 0.00 0.02 0.00 73 1020.2
20260902164603 66 253 0.0 3.0 0.00 0.02 0.00 72 1020.2
20260902164058 67 223 0.0 3.0 0.00 0.02 0.00 70 1020.2
20260902163558 67 225 0.0 3.0 0.00 0.02 0.00 70 1020.1
20260902163102 67 246 0.0 5.0 0.00 0.02 0.00 68 1020.1
20260902162558 67 214 0.0 5.0 0.00 0.02 0.00 67 1020.2
20260902162058 68 199 1.0 6.0 0.00 0.02 0.00 67 1020.1
20260902161600 68 254 2.0 6.0 0.00 0.02 0.00 65 1020.1
20260902161059 68 253 1.0 7.0 0.00 0.02 0.00 65 1020.1
20260902160557 68 220 2.0 6.0 0.00 0.02 0.00 66 1020.1
20260902160108 68 218 1.0 6.0 0.00 0.02 0.00 66 1020.1
20260902155558 68 228 2.0 4.0 0.00 0.08 0.00 66 1020.1
20260902155059 68 239 1.0 8.0 0.00 0.08 0.00 66 1020.1
20260902154559 68 180 2.0 8.0 0.00 0.08 0.00 65 1020.2
20260902154103 68 221 3.0 7.0 0.00 0.08 0.00 65 1020.2
20260902153558 68 223 2.0 8.0 0.00 0.08 0.00 65 1020.3
20260902153059 68 200 2.0 6.0 0.00 0.08 0.00 65 1020.3
20260902152558 68 209 1.0 5.0 0.00 0.08 0.00 64 1020.3
20260902152059 68 220 1.0 4.0 0.00 0.08 0.00 65 1020.2
20260902151558 68 290 1.0 7.0 0.00 0.08 0.00 64 1020.4
20260902151059 68 233 4.0 7.0 0.00 0.08 0.00 63 1020.3
20260902150558 69 198 2.0 7.0 0.00 0.08 0.00 64 1020.4
20260902150058 69 225 3.0 7.0 0.00 0.08 0.00 64 1020.5
20260902145558 69 267 2.0 8.0 0.00 0.09 0.00 64 1020.4
20260902145059 69 271 3.0 8.0 0.00 0.09 0.00 63 1020.4
20260902144558 69 274 1.0 7.0 0.00 0.09 0.00 65 1020.4
20260902144058 69 297 3.0 7.0 0.00 0.09 0.00 64 1020.4
20260902143558 69 237 2.0 8.0 0.00 0.09 0.00 65 1020.5
20260902143504 69 303 3.0 8.0 0.00 0.09 0.00 65 1020.5
20260902143059 69 323 4.0 9.0 0.00 0.09 0.00 64 1020.5
20260902142558 69 232 4.0 9.0 0.00 0.09 0.00 65 1020.4
20260902142059 69 246 1.0 7.0 0.00 0.09 0.00 65 1020.5
20260902141558 70 269 2.0 7.0 0.00 0.09 0.00 64 1020.4
20260902141059 70 246 1.0 7.0 0.00 0.09 0.00 65 1020.5
20260902140558 69 294 2.0 7.0 0.00 0.09 0.00 64 1020.5
20260902140100 70 213 2.0 9.0 0.00 0.09 0.00 62 1020.5
20260902135557 69 276 4.0 9.0 0.00 0.09 0.00 61 1020.5
20260902135057 70 311 3.0 11.0 0.00 0.09 0.00 62 1020.4
20260902134558 70 244 5.0 10.0 0.00 0.09 0.00 61 1020.4
20260902134057 71 215 5.0 18.0 0.00 0.09 0.00 59 1020.4
20260902133558 71 163 9.0 18.0 0.00 0.09 0.00 58 1020.4
20260902133057 71 225 4.0 10.0 0.00 0.09 0.00 61 1020.3
20260902132558 69 225 4.0 12.0 0.00 0.09 0.00 61 1020.4
20260902132057 69 241 5.0 12.0 0.00 0.09 0.00 62 1020.5
20260902131557 70 252 3.0 10.0 0.00 0.09 0.00 61 1020.4
20260902131058 71 241 3.0 10.0 0.00 0.09 0.00 60 1020.4
20260902130559 71 296 7.0 14.0 0.00 0.09 0.00 61 1020.4
20260902130056 71 227 4.0 12.0 0.00 0.09 0.00 61 1020.4
20260902125557 71 280 2.0 10.0 0.00 0.09 0.00 64 1020.3
20260902125101 70 292 4.0 10.0 0.00 0.09 0.00 64 1020.4
20260902124557 70 306 3.0 8.0 0.00 0.09 0.00 64 1020.5
20260902124100 70 334 3.0 7.0 0.00 0.09 0.00 66 1020.5
20260902123557 69 299 3.0 11.0 0.00 0.09 0.00 65 1020.5
20260902123104 69 304 4.0 11.0 0.00 0.09 0.00 65 1020.6
20260902122601 69 287 4.0 10.0 0.00 0.09 0.00 66 1020.7
20260902122057 69 225 5.0 10.0 0.00 0.09 0.00 66 1020.7
20260902121557 69 257 2.0 12.0 0.00 0.09 0.00 68 1020.7
20260902121058 67 240 3.0 9.0 0.00 0.09 0.00 71 1020.9
20260902120558 67 275 3.0 10.0 0.00 0.09 0.00 71 1021.0
20260902120058 68 204 5.0 11.0 0.00 0.09 0.00 70 1021.1
20260902115558 69 327 2.0 9.0 0.00 0.09 0.00 70 1021.0
20260902115058 68 10 3.0 9.0 0.00 0.09 0.00 71 1021.0
20260902114558 68 301 2.0 11.0 0.00 0.09 0.00 68 1021.0
20260902114059 68 272 3.0 11.0 0.00 0.09 0.00 67 1021.0
20260902113557 68 202 4.0 12.0 0.00 0.09 0.00 68 1021.0
20260902113104 69 227 8.0 12.0 0.00 0.09 0.00 66 1021.1
20260902112559 69 205 6.0 17.0 0.00 0.09 0.00 68 1021.1
20260902112058 68 198 7.0 12.0 0.00 0.09 0.00 70 1021.1
20260902111605 68 283 4.0 10.0 0.00 0.09 0.00 70 1021.0
20260902111059 68 288 6.0 10.0 0.00 0.09 0.00 69 1021.2
20260902110558 69 228 4.0 9.0 0.00 0.09 0.00 69 1021.2
20260902110059 69 229 5.0 10.0 0.00 0.09 0.00 68 1021.2
20260902105558 68 300 5.0 11.0 0.00 0.09 0.00 69 1021.3
20260902105059 68 227 4.0 11.0 0.00 0.09 0.00 69 1021.2
20260902104612 69 299 1.0 8.0 0.00 0.09 0.00 71 1021.2
20260902104059 68 256 4.0 11.0 0.00 0.09 0.00 71 1021.2
20260902103557 67 239 6.0 11.0 0.00 0.09 0.00 71 1021.3
20260902103058 67 250 4.0 9.0 0.00 0.09 0.00 72 1021.3
20260902102558 67 292 2.0 10.0 0.00 0.09 0.00 74 1021.3
20260902102058 65 199 5.0 15.0 0.00 0.09 0.00 75 1021.3
20260902101558 65 219 3.0 15.0 0.00 0.09 0.00 76 1021.3
20260902101058 65 238 3.0 10.0 0.00 0.09 0.00 77 1021.3
20260902100559 65 220 2.0 10.0 0.00 0.09 0.00 76 1021.2
20260902100058 65 233 3.0 13.0 0.00 0.09 0.00 76 1021.3
20260902095559 65 286 4.0 13.0 0.00 0.09 0.00 76 1021.2
20260902095059 65 235 5.0 12.0 0.00 0.09 0.00 75 1021.2
20260902094559 65 269 7.0 12.0 0.00 0.09 0.00 76 1021.3
20260902094058 65 265 3.0 12.0 0.00 0.09 0.00 77 1021.3
20260902093602 65 238 7.0 12.0 0.00 0.09 0.00 77 1021.4
20260902093104 65 217 5.0 11.0 0.00 0.09 0.00 76 1021.4
20260902092557 64 211 5.0 11.0 0.00 0.09 0.00 77 1021.3
20260902092100 64 195 4.0 11.0 0.00 0.09 0.00 79 1021.4
20260902091600 63 310 1.0 10.0 0.00 0.09 0.00 81 1021.3
20260902091058 63 274 2.0 12.0 0.00 0.09 0.00 80 1021.3
20260902090558 64 296 5.0 12.0 0.00 0.09 0.00 79 1021.3
20260902090111 65 306 3.0 11.0 0.00 0.09 0.00 79 1021.2
20260902085557 64 215 5.0 11.0 0.00 0.09 0.00 80 1021.2
20260902085057 64 312 4.0 14.0 0.00 0.09 0.00 80 1021.2
20260902084600 63 184 6.0 15.0 0.00 0.09 0.00 80 1021.3
20260902084056 63 236 6.0 15.0 0.00 0.09 0.00 81 1021.3
20260902083557 63 246 4.0 10.0 0.00 0.09 0.00 81 1021.2
20260902083056 63 213 4.0 10.0 0.00 0.09 0.00 81 1021.2
20260902082600 63 290 3.0 12.0 0.00 0.09 0.00 80 1021.2
20260902082058 63 292 6.0 12.0 0.00 0.09 0.00 81 1021.1
20260902081557 63 221 4.0 16.0 0.00 0.09 0.00 80 1021.0
20260902081059 63 225 7.0 16.0 0.00 0.09 0.00 80 1021.1
20260902080557 63 199 7.0 11.0 0.00 0.09 0.00 81 1021.0
20260902080058 63 280 5.0 12.0 0.00 0.09 0.00 81 1021.0
20260902075557 63 227 5.0 12.0 0.00 0.09 0.00 82 1020.9
20260902075102 63 189 4.0 11.0 0.00 0.09 0.00 84 1020.8
20260902074604 62 305 5.0 13.0 0.00 0.09 0.00 84 1020.8
20260902074056 62 207 6.0 13.0 0.00 0.09 0.00 84 1020.8
20260902073600 62 209 4.0 12.0 0.00 0.09 0.00 84 1020.8
20260902073102 62 232 4.0 12.0 0.00 0.09 0.00 84 1020.7
20260902072557 62 223 5.0 12.0 0.00 0.09 0.00 85 1020.7
20260902072057 62 219 6.0 11.0 0.00 0.09 0.00 85 1020.6
20260902071557 61 221 6.0 14.0 0.00 0.09 0.00 86 1020.6
20260902071057 61 306 7.0 12.0 0.00 0.09 0.00 85 1020.6
20260902070558 61 237 5.0 11.0 0.00 0.09 0.00 85 1020.6
20260902070057 61 243 6.0 11.0 0.00 0.09 0.00 86 1020.6
20260902065558 61 204 6.0 10.0 0.00 0.09 0.00 86 1020.5
20260902065059 61 226 5.0 11.0 0.00 0.09 0.00 87 1020.5
20260902064558 61 205 5.0 9.0 0.00 0.09 0.00 87 1020.4
20260902064058 60 219 4.0 10.0 0.00 0.09 0.00 87 1020.5
20260902063558 60 297 4.0 10.0 0.00 0.09 0.00 87 1020.4
20260902063058 60 229 5.0 10.0 0.00 0.09 0.00 87 1020.4
20260902062558 60 198 4.0 9.0 0.00 0.09 0.00 88 1020.4
20260902062102 60 230 4.0 8.0 0.00 0.09 0.00 88 1020.3
20260902061101 59 195 3.0 6.0 0.00 0.09 0.00 88 1020.4
20260902060558 59 212 3.0 11.0 0.00 0.09 0.00 89 1020.4
20260902055559 58 242 4.0 9.0 0.00 0.09 0.00 89 1020.3
20260902055057 58 215 4.0 10.0 0.00 0.09 0.00 89 1020.2
20260902054611 58 220 5.0 10.0 0.00 0.09 0.00 88 1020.1
20260902054057 58 220 4.0 10.0 0.00 0.09 0.00 88 1020.2
20260902053557 58 151 3.0 8.0 0.00 0.09 0.00 88 1020.1
20260902053105 57 214 4.0 8.0 0.00 0.09 0.00 88 1020.2
20260902052557 57 202 4.0 8.0 0.00 0.09 0.00 88 1020.1
20260902052057 57 217 3.0 7.0 0.00 0.09 0.00 87 1020.1
20260902051559 57 221 3.0 7.0 0.00 0.09 0.00 87 1020.1
20260902051057 57 214 4.0 6.0 0.00 0.09 0.00 87 1020.1
20260902050557 57 228 3.0 6.0 0.00 0.09 0.00 87 1020.0
20260902050058 56 219 2.0 6.0 0.00 0.09 0.00 87 1020.0
20260902045556 56 230 3.0 6.0 0.00 0.09 0.00 87 1019.9
20260902045058 56 221 2.0 8.0 0.00 0.09 0.00 87 1019.9
20260902044557 56 197 2.0 8.0 0.00 0.09 0.00 87 1019.9
20260902044057 56 178 3.0 5.0 0.00 0.09 0.00 87 1019.8
20260902043557 56 195 2.0 5.0 0.00 0.09 0.00 88 1019.8
20260902043103 56 232 1.0 5.0 0.00 0.09 0.00 88 1019.8
20260902042557 56 236 2.0 4.0 0.00 0.09 0.00 88 1019.8
20260902042057 56 200 1.0 4.0 0.00 0.09 0.00 88 1019.7
20260902041557 56 178 2.0 5.0 0.00 0.09 0.00 88 1019.7
20260902041057 56 235 2.0 5.0 0.00 0.09 0.00 88 1019.7
20260902040600 56 212 2.0 4.0 0.00 0.09 0.00 88 1019.7
20260902040057 56 195 1.0 5.0 0.00 0.09 0.00 88 1019.7
20260902035557 56 205 3.0 6.0 0.00 0.09 0.00 88 1019.6
20260902035057 56 195 2.0 5.0 0.00 0.09 0.00 88 1019.7
20260902034601 56 197 2.0 6.0 0.00 0.09 0.00 88 1019.6
20260902034057 56 211 3.0 7.0 0.00 0.09 0.00 88 1019.7
20260902033600 56 186 2.0 6.0 0.00 0.09 0.00 88 1019.6
20260902033059 56 204 2.0 7.0 0.00 0.09 0.00 88 1019.6
20260902032557 56 193 3.0 7.0 0.00 0.09 0.00 88 1019.6
20260902032057 56 181 2.0 7.0 0.00 0.09 0.00 88 1019.7
20260902031557 56 139 2.0 7.0 0.00 0.09 0.00 88 1019.7
20260902031100 56 221 2.0 5.0 0.00 0.09 0.00 88 1019.6
20260902030557 56 227 2.0 5.0 0.00 0.09 0.00 88 1019.6
20260902030058 56 195 2.0 4.0 0.00 0.09 0.00 88 1019.6
20260902025557 56 169 1.0 5.0 0.00 0.09 0.00 88 1019.6
20260902025057 56 200 2.0 5.0 0.00 0.09 0.00 88 1019.6
20260902024557 56 211 1.0 4.0 0.00 0.09 0.00 88 1019.6
20260902024057 56 204 3.0 5.0 0.00 0.09 0.00 88 1019.5
20260902023557 56 198 3.0 5.0 0.00 0.09 0.00 88 1019.5
20260902023108 56 193 2.0 5.0 0.00 0.09 0.00 88 1019.5
20260902022557 56 195 3.0 5.0 0.00 0.09 0.00 88 1019.5
20260902022057 57 191 3.0 5.0 0.00 0.09 0.00 88 1019.5
20260902021558 57 213 2.0 5.0 0.00 0.09 0.00 88 1019.6
20260902021057 57 207 2.0 6.0 0.00 0.09 0.00 88 1019.5
20260902020600 57 209 2.0 5.0 0.00 0.09 0.00 88 1019.6
20260902020058 57 202 2.0 6.0 0.00 0.09 0.00 88 1019.5
20260902015557 57 207 3.0 7.0 0.00 0.09 0.00 88 1019.5
20260902015058 57 199 2.0 6.0 0.00 0.09 0.00 88 1019.5
20260902014558 57 197 3.0 7.0 0.00 0.09 0.00 88 1019.5
20260902014057 57 149 3.0 7.0 0.00 0.09 0.00 88 1019.6
20260902013557 57 184 3.0 8.0 0.00 0.09 0.00 88 1019.5
20260902013058 57 217 3.0 8.0 0.00 0.09 0.00 88 1019.5
20260902012600 57 171 2.0 5.0 0.00 0.09 0.00 88 1019.4
20260902012057 57 194 2.0 5.0 0.00 0.09 0.00 88 1019.4
20260902011557 57 209 0.0 5.0 0.00 0.09 0.00 88 1019.3
20260902011057 57 228 2.0 5.0 0.00 0.09 0.00 88 1019.3
20260902010557 57 205 2.0 5.0 0.00 0.09 0.00 88 1019.3
20260902005557 57 225 1.0 5.0 0.00 0.09 0.00 88 1019.3
20260902005057 57 204 2.0 5.0 0.00 0.09 0.00 88 1019.3
20260902004558 57 196 2.0 5.0 0.00 0.09 0.00 88 1019.3
20260902004057 57 232 1.0 4.0 0.00 0.09 0.00 88 1019.3
20260902003557 57 148 1.0 7.0 0.00 0.09 0.00 88 1019.3
20260902003058 57 222 3.0 7.0 0.00 0.09 0.00 88 1019.3
20260902002558 57 217 1.0 4.0 0.00 0.09 0.00 88 1019.3
20260902002057 57 158 2.0 4.0 0.00 0.09 0.00 88 1019.3
20260902001617 57 188 2.0 4.0 0.00 0.09 0.00 88 1019.2
20260902001059 57 184 2.0 7.0 0.00 0.09 0.00 88 1019.2
20260902000557 58 195 3.0 7.0 0.00 0.09 0.00 88 1019.2
20260902000104 58 207 1.0 5.0 0.00 0.09 0.00 88 1019.2
20260901235557 58 188 3.0 6.0 0.00 0.09 0.00 88 1019.2
20260901235057 58 225 3.0 6.0 0.00 0.09 0.00 88 1019.3
20260901234557 58 212 2.0 6.0 0.00 0.09 0.00 88 1019.2
20260901234057 58 205 3.0 6.0 0.00 0.09 0.00 88 1019.2
20260901233558 58 207 2.0 5.0 0.00 0.09 0.00 87 1019.2